Location: Recife
(8.0585°S, 34.8848°W)
Time: 13:20:36
(UTC-03:00)

Vanguard 1 Rocket - Pass Details

Date: 15 April 2026
Orbit: 655 x 4212 km, 34.3° (Epoch: 12 May)

Event Time Altitude Azimuth Distance (km) Brightness Sun altitude
Rises 04:13:00 0° 331° (NNW) 5,586 11.2 -17.7°
Reaches altitude 10° 04:19:44 10° 354° (N) 3,729 10.5 -16.0°
Maximum altitude 04:23:42 13° 21° (NNE) 2,968 10.4 -15.1°
Drops below altitude 10° 04:26:53 10° 49° (NE) 2,847 10.8 -14.3°
Sets 04:30:38 0° 77° (ENE) 3,399 12.4 -13.4°
